Regional Weather Roundup
Issued by NWS

Home | Current Version | Previous Version | Graphics & Text | Print | Product List | Glossary On
Versions: 1 2 3 4 5 6 7 8 9 10 11 12 13 14 15 16 17 18 19 20 21 22 23 24 25 26 27 28 29 30 31 32 33 34 35 36 37 38 39 40 41 42 43 44 45 46 47 48 49 50
000
ASUS43 KLMK 281610
RWRKY
KENTUCKY REGIONAL WEATHER ROUNDUP
NATIONAL WEATHER SERVICE LOUISVILLE KY
1200 PM EDT SAT MAY 28 2016

NOTE "FAIR" INDICATES FEW OR NO CLOUDS BELOW 12,000 FEET
WITH NO SIGNIFICANT WEATHER AND/OR OBSTRUCTIONS TO VISIBILITY.

KYZ001>023-026-027-061>063-070>075-281700-
WESTERN AND SOUTH CENTRAL KENTUCKY

CITY           SKY/WX    TMP DP  RH WIND       PRES   REMARKS
PADUCAH        CLOUDY    77  64  64 S12G21    30.00R
HENDERSON      CLOUDY    79  64  61 S14       30.01S
OWENSBORO      CLOUDY    82  68  62 S15       30.05S
HOPKINSVILLE   MOSUNNY   81  65  58 S10       30.06R
BOWLING GREEN  PTSUNNY   80  66  62 S9        30.10R
GLASGOW        CLOUDY    77  63  61 S10       30.12S
$$

KYZ024-025-028>034-038-045-046-053-281700-
NORTH CENTRAL KENTUCKY

CITY           SKY/WX    TMP DP  RH WIND       PRES   REMARKS
LOUISVILLE/SDF CLOUDY    81  67  62 S12       30.09R
LOUISVILLE/LOU CLOUDY    77  66  68 S6        30.10R
FORT KNOX      CLOUDY    80  68  66 S10       30.09R
$$

KYZ035>037-039>044-047>052-055>060-089>105-281700-
NORTHEAST KENTUCKY

CITY           SKY/WX    TMP DP  RH WIND       PRES   REMARKS
LEXINGTON      PTSUNNY   81  64  56 SW9       30.15R
COVINGTON      CLOUDY    76  67  73 SW7       30.13R
FRANKFORT      CLOUDY    78  65  63 S8        30.12R
$$

KYZ054-064>069-076>088-106>120-281700-
SOUTHEAST KENTUCKY

CITY           SKY/WX    TMP DP  RH WIND       PRES   REMARKS
JACKSON        PTSUNNY   77  66  68 CALM      30.19R
LONDON         CLOUDY    78  62  57 S10       30.18R
SOMERSET       MOSUNNY   79  61  53 SW5       30.17S
MIDDLESBORO    CLOUDY    79  65  62 S6        30.20R
MONTICELLO     SUNNY     82  64  54 W17       30.17S
$$





USA.gov is the U.S. government's official web portal to all federal, state and local government web resources and services.